BARATARIA BAY PASS AT GRAND ISLE LA US USGS current weather conditions

sailwx.info

Wind from 039 at 21 knots

Last reported at 2019-Nov-15 01:00 UTC.
Time now 2019-Nov-15 03:02 UTC

Location: N 29°16' W 089°57'.
View on Google Maps.

See reports from other nearby stations

  
Tides and Currents Weather Stations Pressure Air Temp Water Temp Dewpoint Dewpoint Depression Visibility Wind Speed Wind Dir Waves Ship Positions
date/time (UTC)wind fromknots sea level pressurealtimeterstation pressurevisibilityair tempwater tempwave heightnotes
2019-Nov-15 01:00 039 21
2019-Nov-15 00:30 036 25
2019-Nov-15 00:00 040 24
2019-Nov-14 23:30 039 21
2019-Nov-14 23:00 035 23
2019-Nov-14 22:30 026 21
2019-Nov-14 22:00 035 22
2019-Nov-14 21:30 050 19
2019-Nov-14 21:00 027 20
2019-Nov-14 20:30 029 17
2019-Nov-14 20:00 023 20
2019-Nov-14 19:30 011 17
2019-Nov-14 19:00 011 16
2019-Nov-14 18:30 005 19
2019-Nov-14 18:00 019 19
2019-Nov-14 17:30 011 13
2019-Nov-14 17:00 025 14
2019-Nov-14 16:30 024 19
2019-Nov-14 16:00 031 17
2019-Nov-14 15:30 025 19
2019-Nov-14 15:00 022 18
2019-Nov-14 14:30 029 17
2019-Nov-14 14:00 033 16
2019-Nov-14 13:30 031 16
2019-Nov-14 12:00 029 17
2019-Nov-14 11:30 034 15
2019-Nov-14 11:00 027 17
2019-Nov-14 10:30 032 17
2019-Nov-14 10:00 039 17
2019-Nov-14 09:30 030 17
2019-Nov-14 09:00 024 17
2019-Nov-14 08:30 041 17
2019-Nov-14 08:00 054 15
2019-Nov-14 07:30 058 16
2019-Nov-14 07:00 060 19
2019-Nov-14 06:30 056 17
2019-Nov-14 06:00 053 17
2019-Nov-14 05:30 049 18
2019-Nov-14 05:00 034 14
2019-Nov-14 04:30 052 14
2019-Nov-14 04:00 047 17
2019-Nov-14 03:30 047 14
2019-Nov-14 03:00 028 14
2019-Nov-14 02:30 043 17
2019-Nov-14 02:00 032 16
2019-Nov-14 01:00 029 17
2019-Nov-14 00:30 039 15
2019-Nov-14 00:00 023 15
2019-Nov-13 23:30 028 16
2019-Nov-13 23:00 052 13
2019-Nov-13 22:30 035 14
2019-Nov-13 22:00 028 14
2019-Nov-13 21:30 032 15
2019-Nov-13 21:00 046 12
2019-Nov-13 20:30 053 12
2019-Nov-13 20:00 041 8
2019-Nov-13 19:30 042 6
2019-Nov-13 19:00 045 11
2019-Nov-13 18:30 061 10
2019-Nov-13 18:00 040 11
2019-Nov-13 17:30 037 11
2019-Nov-13 17:00 066 5
2019-Nov-13 16:30 078 6
2019-Nov-13 16:00 030 11
2019-Nov-13 15:30 034 14
2019-Nov-13 15:00 049 12
2019-Nov-13 14:30 028 16
2019-Nov-13 14:00 048 14
2019-Nov-13 13:30 038 15
2019-Nov-13 13:00 027 13
2019-Nov-13 12:30 018 14
2019-Nov-13 12:00 043 16
2019-Nov-13 11:30 036 11
2019-Nov-13 11:00 045 13
2019-Nov-13 10:30 035 13
2019-Nov-13 10:00 034 12
2019-Nov-13 09:30 033 19
2019-Nov-13 09:00 039 21
2019-Nov-13 08:30 039 18
2019-Nov-13 08:00 049 20
2019-Nov-13 07:30 029 22
2019-Nov-13 07:00 028 23
2019-Nov-13 06:30 034 25
2019-Nov-13 06:00 013 24
2019-Nov-13 05:30 032 26
2019-Nov-13 05:00 031 25
2019-Nov-13 04:30 016 27
2019-Nov-13 04:00 017 28
2019-Nov-13 03:30 018 25
2019-Nov-13 03:00 026 28